Location: Unspecified
(47.8058°S, 0.0000°E)
Time: 21:45:57
(UTC+00:00)

AO-85 - Visible Passes

Search period start: 04 April 2026 00:00
Search period end: 14 April 2026 00:00
Orbit: 507 x 686 km, 64.8° (Epoch: 29 March)

Date Brightness Start Highest point End Pass type
(mag) Time Alt. Az. Time Alt. Az. Time Alt. Az.
4 Apr ? 19:33:44 10° SW 19:38:16 38° WNW 19:42:09 12° N visible
5 Apr ? 18:04:02 10° SSW 18:08:56 59° SE 18:13:36 10° NE visible
5 Apr ? 19:44:09 10° WSW 19:47:59 24° WNW 19:51:41 10° NNW visible
6 Apr ? 18:13:59 10° SW 18:18:56 90° NW 18:23:39 10° NE visible
6 Apr ? 19:55:05 10° WSW 19:57:37 14° WNW 20:00:05 10° NW visible
7 Apr ? 18:24:01 10° SW 18:28:50 57° WNW 18:33:25 10° NNE visible
8 Apr ? 18:34:13 10° SW 18:38:37 34° WNW 18:42:51 10° N visible
9 Apr ? 18:44:40 10° WSW 18:48:18 21° WNW 18:51:49 10° NNW visible
10 Apr ? 18:55:48 10° W 18:57:53 13° WNW 18:59:56 10° NW visible
